DW7738 Weather Reports


time (UTC)temp
C
wind
direction
speed
KPH
gust
KPH
rain 1hr
cm
rain 24hr
cm
rain mn
cm
humidity
%
barometer
mb
20260506183100 16 142 4.8 19.3 0.05 0.43 0.43 93 1008.5
20260506182559 16 239 6.4 17.7 0.08 0.43 0.43 93 1008.5
20260506182059 16 238 3.2 19.3 0.08 0.43 0.43 93 1008.5
20260506181600 16 195 3.2 22.5 0.05 0.41 0.41 93 1008.5
20260506181059 16 235 8.0 22.5 0.05 0.41 0.41 93 1008.6
20260506180600 16 176 9.7 22.5 0.05 0.41 0.41 92 1008.7
20260506180101 16 195 8.0 12.9 0.05 0.41 0.41 92 1008.6
20260506175601 16 195 3.2 24.1 0.05 0.41 0.41 92 1008.6
20260506175058 16 152 6.4 24.1 0.05 0.41 0.41 92 1008.7
20260506174600 16 207 11.3 22.5 0.05 0.41 0.41 92 1008.6
20260506174059 16 172 8.0 27.4 0.05 0.41 0.41 92 1008.6
20260506173559 16 155 9.7 27.4 0.05 0.38 0.38 92 1008.8
20260506173112 16 251 9.7 22.5 0.05 0.38 0.38 91 1008.8
20260506172558 16 180 8.0 17.7 0.03 0.36 0.36 91 1008.8
20260506172058 16 164 8.0 29.0 0.05 0.36 0.36 91 1008.9
20260506171609 16 152 8.0 29.0 0.05 0.36 0.36 91 1009.0
20260506171059 16 181 11.3 20.9 0.05 0.36 0.36 91 1009.0
20260506170600 16 197 4.8 16.1 0.08 0.36 0.36 92 1008.9
20260506165559 16 190 4.8 12.9 0.10 0.36 0.36 93 1009.0
20260506165059 16 210 4.8 14.5 0.13 0.36 0.36 93 1009.0
20260506164613 16 178 4.8 14.5 0.13 0.36 0.36 93 1009.0
20260506164058 16 163 8.0 19.3 0.15 0.36 0.36 93 1008.8
20260506163558 16 203 6.4 22.5 0.15 0.33 0.33 92 1008.7
20260506163105 16 190 11.3 29.0 0.18 0.33 0.33 92 1008.6
20260506162558 16 189 12.9 29.0 0.18 0.33 0.33 92 1008.7
20260506162100 16 148 11.3 27.4 0.18 0.30 0.30 92 1008.8
20260506161557 16 187 11.3 24.1 0.18 0.30 0.30 92 1009.0
20260506161100 16 142 9.7 22.5 0.18 0.30 0.30 92 1009.3
20260506160559 16 185 8.0 22.5 0.18 0.28 0.28 91 1009.5
20260506160110 16 173 9.7 17.7 0.15 0.25 0.25 91 1009.6
20260506155558 16 196 8.0 16.1 0.18 0.25 0.25 91 1009.7
20260506155059 16 186 8.0 16.1 0.18 0.23 0.23 91 1009.8
20260506154558 16 179 6.4 16.1 0.18 0.23 0.23 91 1009.9
20260506154059 16 187 6.4 12.9 0.18 0.20 0.20 91 1010.0
20260506153559 16 241 4.8 12.9 0.15 0.18 0.18 91 1010.2
20260506153101 16 205 8.0 12.9 0.15 0.15 0.15 91 1010.1
20260506152559 16 188 4.8 20.9 0.15 0.15 0.15 90 1010.2
20260506152100 17 174 6.4 20.9 0.13 0.13 0.13 90 1010.2
20260506151558 17 203 4.8 20.9 0.13 0.13 0.13 89 1010.1
20260506151059 17 172 6.4 20.9 0.13 0.13 0.13 89 1009.8
20260506150558 17 189 8.0 12.9 0.10 0.10 0.10 88 1009.8
20260506150057 17 188 8.0 16.1 0.10 0.10 0.10 88 1009.9
20260506145601 17 151 6.4 16.1 0.08 0.08 0.08 87 1010.0
20260506145058 17 202 8.0 16.1 0.05 0.05 0.05 85 1009.8
20260506144556 17 150 4.8 14.5 0.05 0.05 0.05 84 1009.8
20260506144058 18 182 4.8 16.1 0.03 0.03 0.03 83 1010.0
20260506143559 18 166 9.7 24.1 0.03 0.03 0.03 80 1010.0
20260506143058 18 214 9.7 24.1 0.00 0.00 0.00 77 1010.1
20260506142559 18 178 8.0 17.7 0.00 0.00 0.00 77 1010.2
20260506142058 18 196 9.7 19.3 0.00 0.00 0.00 77 1010.0
20260506141611 19 199 8.0 19.3 0.00 0.00 0.00 77 1009.9
20260506141059 19 179 6.4 29.0 0.00 0.00 0.00 76 1009.9
20260506140600 19 184 11.3 29.0 0.00 0.00 0.00 76 1009.8
20260506140101 19 165 9.7 22.5 0.00 0.00 0.00 77 1009.7
20260506135558 19 154 8.0 24.1 0.00 0.00 0.00 77 1009.8
20260506135058 18 268 11.3 24.1 0.00 0.00 0.00 77 1009.7
20260506134601 18 192 9.7 24.1 0.00 0.00 0.00 77 1009.9
20260506134059 18 209 6.4 20.9 0.00 0.00 0.00 76 1009.9
20260506133559 18 168 4.8 20.9 0.00 0.00 0.00 76 1009.9
20260506133107 18 239 8.0 20.9 0.00 0.00 0.00 76 1009.9
20260506132558 18 196 8.0 17.7 0.00 0.00 0.00 76 1010.0
20260506132059 18 134 6.4 17.7 0.00 0.00 0.00 76 1010.0
20260506131601 18 250 6.4 19.3 0.00 0.00 0.00 76 1010.1
20260506131059 18 202 9.7 22.5 0.00 0.00 0.00 76 1010.1
20260506130600 18 159 4.8 22.5 0.00 0.00 0.00 76 1010.2
20260506130100 18 216 6.4 22.5 0.00 0.00 0.00 76 1010.2
20260506125558 18 183 9.7 17.7 0.00 0.00 0.00 76 1010.3
20260506125058 18 178 8.0 20.9 0.00 0.00 0.00 76 1010.2
20260506124600 18 201 8.0 20.9 0.00 0.00 0.00 76 1010.2
20260506124058 18 175 8.0 14.5 0.00 0.00 0.00 77 1010.1
20260506123600 18 238 6.4 14.5 0.00 0.00 0.00 77 1010.2
20260506123059 18 222 4.8 20.9 0.00 0.00 0.00 77 1010.1
20260506122559 18 213 12.9 20.9 0.00 0.00 0.00 77 1009.9
20260506122059 18 184 9.7 20.9 0.00 0.00 0.00 77 1009.9
20260506121610 18 232 9.7 20.9 0.00 0.00 0.00 77 1010.0
20260506121059 18 134 9.7 25.7 0.00 0.00 0.00 77 1009.9
20260506120559 18 203 12.9 25.7 0.00 0.00 0.00 78 1009.9
20260506120125 18 219 9.7 25.7 0.00 0.00 0.00 78 1010.0
20260506115559 18 165 8.0 24.1 0.00 0.00 0.00 78 1009.9
20260506115059 18 194 8.0 25.7 0.00 0.00 0.00 78 1009.9
20260506114559 18 173 12.9 25.7 0.00 0.00 0.00 78 1009.9
20260506114058 18 201 12.9 25.7 0.00 0.00 0.00 78 1009.8
20260506113558 18 165 12.9 32.2 0.00 0.00 0.00 78 1009.8
20260506113109 18 173 12.9 32.2 0.00 0.00 0.00 78 1009.8
20260506112558 18 198 11.3 22.5 0.00 0.00 0.00 78 1009.8
20260506112058 18 175 12.9 22.5 0.00 0.00 0.00 78 1009.9
20260506111559 18 206 11.3 22.5 0.00 0.00 0.00 78 1009.8
20260506111059 18 189 12.9 22.5 0.00 0.00 0.00 78 1009.7
20260506110603 18 168 11.3 20.9 0.00 0.00 0.00 78 1009.7
20260506105600 18 174 8.0 19.3 0.00 0.00 0.00 78 1009.6
20260506105059 18 213 12.9 19.3 0.00 0.00 0.00 78 1009.6
20260506104602 18 193 9.7 20.9 0.00 0.00 0.00 78 1009.5
20260506104059 18 166 12.9 20.9 0.00 0.00 0.00 78 1009.5
20260506103559 18 146 9.7 17.7 0.00 0.00 0.00 78 1009.4
20260506103058 18 178 9.7 17.7 0.00 0.00 0.00 78 1009.4
20260506102600 18 180 4.8 11.3 0.00 0.00 0.00 78 1009.4
20260506102059 18 185 6.4 16.1 0.00 0.00 0.00 78 1009.4
20260506101603 18 165 6.4 16.1 0.00 0.00 0.00 78 1009.4
20260506101059 18 140 6.4 16.1 0.00 0.00 0.00 78 1009.4
20260506100559 18 166 6.4 14.5 0.00 0.00 0.00 78 1009.3
20260506100059 18 176 6.4 17.7 0.00 0.00 0.00 78 1009.4
20260506095559 18 153 6.4 17.7 0.00 0.15 0.00 78 1009.5
20260506095059 18 165 4.8 17.7 0.00 0.15 0.00 77 1009.4
20260506094600 18 165 9.7 20.9 0.00 0.15 0.00 77 1009.3
20260506094058 18 165 6.4 20.9 0.00 0.15 0.00 77 1009.3
20260506093559 18 171 8.0 16.1 0.00 0.15 0.00 76 1009.2
20260506093101 18 198 9.7 17.7 0.00 0.15 0.00 76 1009.2
20260506092559 18 163 11.3 17.7 0.00 0.15 0.00 76 1009.1
20260506092059 18 211 9.7 22.5 0.00 0.15 0.00 76 1009.2
20260506091600 19 207 11.3 22.5 0.00 0.15 0.00 75 1009.2
20260506091059 18 224 9.7 16.1 0.00 0.15 0.00 75 1009.2
20260506090558 18 186 8.0 16.1 0.00 0.15 0.00 75 1009.3
20260506090059 18 176 8.0 17.7 0.00 0.15 0.00 75 1009.3
20260506085600 18 173 8.0 17.7 0.00 0.15 0.00 75 1009.3
20260506085058 18 171 6.4 19.3 0.00 0.15 0.00 75 1009.4
20260506084558 18 144 11.3 19.3 0.00 0.15 0.00 75 1009.4
20260506084059 18 200 11.3 19.3 0.00 0.15 0.00 75 1009.5
20260506083559 18 166 8.0 16.1 0.00 0.15 0.00 75 1009.4
20260506083059 18 161 8.0 17.7 0.00 0.15 0.00 75 1009.4
20260506082559 18 184 4.8 17.7 0.00 0.15 0.00 75 1009.5
20260506082101 18 184 8.0 12.9 0.00 0.15 0.00 74 1009.4
20260506081602 18 173 6.4 12.9 0.00 0.15 0.00 74 1009.4
20260506081059 18 149 4.8 12.9 0.00 0.15 0.00 74 1009.5
20260506080601 18 175 8.0 12.9 0.00 0.15 0.00 73 1009.4
20260506080110 19 151 6.4 17.7 0.00 0.15 0.00 73 1009.5
20260506073101 19 169 9.7 17.7 0.00 0.15 0.00 70 1009.5
20260506072600 19 202 6.4 16.1 0.00 0.15 0.00 69 1009.6
20260506072059 20 189 8.0 27.4 0.00 0.15 0.00 69 1009.7
20260506071559 20 177 11.3 27.4 0.00 0.15 0.00 69 1009.7
20260506071058 20 163 6.4 17.7 0.00 0.15 0.00 69 1009.6
20260506070559 20 172 12.9 20.9 0.00 0.15 0.00 68 1009.7
20260506070116 20 173 11.3 20.9 0.00 0.15 0.00 68 1009.7
20260506062100 20 189 6.4 14.5 0.00 0.15 0.00 66 1010.1
20260506061601 20 189 8.0 14.5 0.00 0.15 0.00 66 1010.1
20260506061059 20 165 6.4 12.9 0.00 0.15 0.00 66 1010.2
20260506060600 20 184 4.8 14.5 0.00 0.15 0.00 66 1010.2
20260506051058 20 146 11.3 19.3 0.00 0.15 0.00 65 1010.6
20260506050558 20 184 8.0 17.7 0.00 0.15 0.00 65 1010.7
20260506050113 20 185 9.7 17.7 0.00 0.15 0.00 65 1010.6
20260506045057 20 194 6.4 16.1 0.00 0.15 0.00 65 1010.6
20260506044603 20 194 9.7 17.7 0.00 0.15 0.00 65 1010.7
20260506044100 20 138 9.7 24.1 0.00 0.15 0.00 65 1010.7
20260506043600 20 213 9.7 24.1 0.00 0.15 0.00 65 1010.7
20260506043056 20 188 9.7 22.5 0.00 0.15 0.00 65 1010.7
20260506042600 20 209 9.7 22.5 0.00 0.15 0.00 65 1010.8
20260506042102 20 178 9.7 14.5 0.00 0.15 0.00 65 1010.6
20260506041600 20 209 8.0 16.1 0.00 0.15 0.00 65 1010.6
20260506041058 20 184 8.0 17.7 0.00 0.15 0.00 65 1010.6
20260506040559 20 175 11.3 17.7 0.00 0.15 0.00 65 1010.6
20260506040101 20 153 6.4 17.7 0.00 0.15 0.00 64 1010.6
20260506035558 20 149 9.7 20.9 0.00 0.15 0.15 63 1010.6
20260506035058 20 168 6.4 20.9 0.00 0.15 0.15 63 1010.6
20260506034600 20 159 8.0 24.1 0.00 0.15 0.15 63 1010.6
20260506034058 20 190 9.7 24.1 0.00 0.15 0.15 62 1010.6
20260506033603 21 150 8.0 19.3 0.00 0.15 0.15 62 1010.5
20260506033059 21 169 11.3 19.3 0.00 0.15 0.15 61 1010.5
20260506032559 21 184 11.3 20.9 0.00 0.15 0.15 60 1010.4
20260506032059 21 157 8.0 20.9 0.00 0.15 0.15 60 1010.4
20260506031603 21 169 11.3 20.9 0.00 0.15 0.15 59 1010.5
20260506031100 21 188 9.7 19.3 0.00 0.15 0.15 58 1010.5
20260506030555 21 171 9.7 19.3 0.00 0.15 0.15 57 1010.5
20260506030114 21 163 9.7 16.1 0.00 0.15 0.15 56 1010.4
20260506025555 21 157 8.0 12.9 0.00 0.15 0.15 56 1010.4
20260506025100 21 180 6.4 12.9 0.00 0.15 0.15 54 1010.4
20260506024559 22 171 4.8 14.5 0.00 0.15 0.15 54 1010.4
20260506024055 22 180 6.4 16.1 0.00 0.15 0.15 53 1010.4
20260506023559 22 176 9.7 22.5 0.00 0.15 0.15 53 1010.6
20260506023100 22 164 9.7 22.5 0.00 0.15 0.15 52 1010.5
20260506022559 22 205 6.4 19.3 0.00 0.15 0.15 52 1010.6
20260506022059 22 166 8.0 19.3 0.00 0.15 0.15 51 1010.6
20260506021603 22 187 9.7 14.5 0.00 0.15 0.15 51 1010.5
20260506021057 22 150 8.0 20.9 0.00 0.15 0.15 51 1010.4
20260506020556 22 194 9.7 20.9 0.00 0.15 0.15 50 1010.5
20260506020057 22 205 9.7 19.3 0.00 0.15 0.15 50 1010.4
20260506015556 23 213 9.7 17.7 0.00 0.15 0.15 50 1010.6
20260506015101 23 173 8.0 14.5 0.00 0.15 0.15 49 1010.5
20260506014602 23 187 6.4 17.7 0.00 0.15 0.15 49 1010.4
20260506014059 23 153 8.0 20.9 0.00 0.15 0.15 48 1010.4
20260506013557 23 189 11.3 25.7 0.00 0.15 0.15 48 1010.3
20260506013101 23 159 12.9 25.7 0.00 0.15 0.15 48 1010.1
20260506012559 23 203 8.0 20.9 0.00 0.15 0.15 49 1010.1
20260506012059 23 181 9.7 20.9 0.00 0.15 0.15 49 1010.1
20260506011600 23 145 11.3 25.7 0.00 0.15 0.15 49 1009.9
20260506011059 23 175 11.3 27.4 0.00 0.15 0.15 49 1009.9
20260506010559 23 183 11.3 27.4 0.00 0.15 0.15 50 1009.9
20260506005601 23 186 8.0 12.9 0.00 0.15 0.15 49 1009.7
20260506005058 23 180 6.4 14.5 0.00 0.15 0.15 49 1009.7
20260506004629 23 167 6.4 16.1 0.00 0.15 0.15 49 1009.7
20260506004058 23 186 8.0 16.1 0.00 0.15 0.15 48 1009.7
20260506003559 23 166 6.4 11.3 0.00 0.15 0.15 48 1009.6
20260506003101 23 165 6.4 12.9 0.00 0.15 0.15 47 1009.5
20260506002558 24 170 6.4 17.7 0.00 0.15 0.15 46 1009.4
20260506002103 24 190 6.4 17.7 0.00 0.15 0.15 45 1009.4
20260506001601 24 189 8.0 17.7 0.00 0.15 0.15 44 1009.4
20260506001058 25 175 8.0 16.1 0.00 0.15 0.15 43 1009.3
20260506000600 25 173 8.0 24.1 0.00 0.15 0.15 43 1009.2
20260506000100 25 206 6.4 24.1 0.00 0.15 0.15 42 1009.2
20260505235603 25 194 9.7 20.9 0.00 0.15 0.15 42 1009.1
20260505235059 25 169 9.7 24.1 0.00 0.15 0.15 41 1009.1
20260505234618 25 205 9.7 24.1 0.00 0.15 0.15 41 1009.0
20260505234059 25 178 11.3 30.6 0.00 0.15 0.15 40 1008.9
20260505233558 25 184 11.3 32.2 0.00 0.15 0.15 40 1009.0
20260505233058 25 190 12.9 32.2 0.00 0.15 0.15 40 1009.0
20260505232559 26 141 9.7 32.2 0.00 0.15 0.15 40 1009.0
20260505232059 26 259 12.9 32.2 0.00 0.15 0.15 39 1009.0
20260505231602 26 189 9.7 20.9 0.00 0.15 0.15 38 1008.9
20260505231059 26 141 6.4 24.1 0.00 0.15 0.15 38 1008.8
20260505230559 26 217 9.7 24.1 0.00 0.15 0.15 38 1008.9
20260505230100 26 210 9.7 30.6 0.00 0.15 0.15 37 1009.0
20260505225559 26 223 11.3 30.6 0.00 0.15 0.15 37 1008.8
20260505225059 26 225 14.5 30.6 0.00 0.15 0.15 37 1008.7
20260505224600 26 192 14.5 30.6 0.00 0.15 0.15 37 1008.7
20260505224059 26 185 11.3 38.6 0.00 0.15 0.15 37 1008.7
20260505223601 26 197 14.5 38.6 0.00 0.15 0.15 37 1008.8
20260505223105 26 184 12.9 29.0 0.00 0.15 0.15 36 1008.7
20260505222559 26 261 14.5 24.1 0.00 0.15 0.15 37 1008.8
20260505222100 26 241 9.7 17.7 0.00 0.15 0.15 37 1008.7
20260505221613 26 162 6.4 27.4 0.00 0.15 0.15 38 1008.7
20260505221059 26 202 9.7 27.4 0.00 0.15 0.15 37 1008.7
20260505220602 26 179 9.7 24.1 0.00 0.15 0.15 38 1008.7
20260505220138 26 199 12.9 24.1 0.00 0.15 0.15 37 1008.8
20260505215558 26 200 6.4 29.0 0.00 0.15 0.15 37 1008.6
20260505215059 26 272 12.9 45.1 0.00 0.15 0.15 37 1008.7
20260505214617 26 200 16.1 45.1 0.00 0.15 0.15 37 1008.7
20260505214100 26 207 11.3 32.2 0.00 0.15 0.15 38 1008.9
20260505213602 26 182 12.9 32.2 0.00 0.15 0.15 37 1008.6
20260505213057 26 256 12.9 43.5 0.00 0.15 0.15 37 1008.5
20260505212603 26 236 19.3 43.5 0.00 0.15 0.15 37 1008.6
20260505212059 27 166 8.0 25.7 0.00 0.15 0.15 37 1008.6
20260505211612 27 186 6.4 32.2 0.00 0.15 0.15 36 1008.4
20260505211056 27 304 6.4 32.2 0.00 0.15 0.15 37 1008.5
20260505210558 26 150 14.5 41.8 0.00 0.15 0.15 37 1008.5
20260505210059 26 229 19.3 41.8 0.00 0.15 0.15 37 1008.4
20260505205559 26 215 12.9 37.0 0.00 0.15 0.15 37 1008.3
20260505205058 27 162 11.3 37.0 0.00 0.15 0.15 36 1008.3
20260505204602 27 180 20.9 43.5 0.00 0.15 0.15 36 1008.4
20260505204059 27 254 11.3 43.5 0.00 0.15 0.15 36 1008.5
20260505203557 27 208 9.7 32.2 0.00 0.15 0.15 35 1008.5
20260505203101 27 227 14.5 32.2 0.00 0.15 0.15 37 1008.5
20260505202559 27 182 12.9 29.0 0.00 0.15 0.15 36 1008.5
20260505202100 27 134 12.9 40.2 0.00 0.15 0.15 36 1008.7
20260505201608 27 229 9.7 40.2 0.00 0.15 0.15 35 1008.7
20260505201059 27 195 20.9 38.6 0.00 0.15 0.15 35 1008.6
20260505200559 26 205 22.5 38.6 0.00 0.15 0.15 35 1008.8
20260505200106 26 142 19.3 38.6 0.00 0.15 0.15 34 1008.7
20260505195600 27 187 17.7 35.4 0.00 0.15 0.15 33 1008.7
20260505195058 27 211 11.3 38.6 0.00 0.15 0.15 34 1008.9
20260505194607 27 200 16.1 41.8 0.00 0.15 0.15 33 1008.8
20260505194059 27 193 17.7 41.8 0.00 0.15 0.15 32 1008.7
20260505193559 27 254 19.3 43.5 0.00 0.15 0.15 33 1008.8
20260505193103 27 167 11.3 43.5 0.00 0.15 0.15 33 1008.7
20260505192559 27 193 16.1 38.6 0.00 0.15 0.15 32 1008.7
20260505192102 27 211 22.5 41.8 0.00 0.15 0.15 32 1008.7
20260505191557 27 197 17.7 41.8 0.00 0.15 0.15 33 1008.7
20260505191059 27 206 11.3 37.0 0.00 0.15 0.15 34 1008.9
20260505190601 27 143 22.5 41.8 0.00 0.15 0.15 32 1009.0
20260505185559 27 190 24.1 45.1 0.00 0.15 0.15 32 1009.1
20260505185059 27 171 3.2 45.1 0.00 0.15 0.15 33 1009.2
20260505184600 27 210 14.5 46.7 0.00 0.15 0.15 34 1009.2
20260505184059 27 225 19.3 46.7 0.00 0.15 0.15 34 1009.1
20260505183602 27 254 16.1 40.2 0.00 0.15 0.15 34 1009.1